sat.trackr.live / text

‹ back to catalog

STARLINK-36184

NORAD 67021 · 2025-293U

PAYLOAD ACTIVE UNKNOWN

§ Identity

Operator
Country
US
Launch date
2025-12-10
Launch site
AFWTR
Launch vehicle
Mass (kg)
RCS (m²)

Purposes: comms

External: N2YO · Heavens-Above · Gunter

§ Orbital elements

Epoch: 2026-09-20T21:13:50.485440Z

Period
96.11 min
Inclination
70.0073°
Eccentricity
0.0003045
Mean motion
14.98265774 rev/d
Perigee alt
570.1 km
Apogee alt
574.4 km
Semi-major
6,950.4 km
B*
-2.2871e-3
RAAN
322.3969°
Arg perigee
250.6863°
Mean anomaly
109.3967°
Rev number
4,412

§ Raw data

STARLINK-361841 67021U 25293U   26263.88461210 -.00027232  00000+0 -22871-2 0  99952 67021  70.0073 322.3969 0003045 250.6863 109.3967 14.98265774 44120

JSON: /api/v1/satellites/67021 · /tle

For live sub-satellite position, see the globe view (requires WebGL).

§ Visibility from observer

Set your observer location to see the next 7 days of passes ≥ 10°. The values pass through the URL so the page stays shareable.

No JS? Fill the form by hand. The geolocation button needs JavaScript.